PEGASUS DEB, 40242

Orbit data source: Space-Track

PEGASUS DEB, 40242 is space debris in LEO originally from a launch on Thu, 19 May 1994 UTC launched from the Air Force Western Test Range (AFWTR). Debris objects in space refer to the collection of defunct objects orbiting the Earth. Examples of debris include non-operational satellites, rocket bodies, and fragments generated from explosions, collisions, or faulty payload assembly.

Loading next visibility...
Identifier
40242, 1994-029AGJ
Orbit
LEO
Country
Flag of USUS
Related business
Manufacturer
Unknown
Mission
Spacecraft
Bus & Motor
Unknown
Mass
Unknown
Launch date (UTC)
1994-05-19 (32 years ago)
Launch vehicle
Unknown
Launch site
Air Force Western Test Range (AFWTR)
Object type
Payload
Rocket body
Debris
Shape & HBR
Unknown shape, 0.1 m
Radar Cross Section
Small (<0.1 m²)

Expand to show TLE details & history
Last TLE update: 2 days ago

TLE from 2 days ago
0 PEGASUS DEB
1 40242U 94029AGJ 26119.90016183  .00007057  00000-0  14273-2 0  9991
2 40242  81.8791 350.8875 0321219   7.5930 352.9949 14.33407677595659
Epoch: 2026-04-29T21:36Z
TLE epoch observation values (Epoch: 2026-04-29T21:36:13.982Z)
Latitude
0.00006°
Longitude
168.97476°
Altitude
555.157 km
Speed
7.704 km/s
True Right ascension
23h 23m 33s
True Declination
0° 00' 00"
Sunlit
Object was in daylight at epoch
Visualization orbit readout
Latitude
Unknown
Longitude
Unknown
Altitude
Unknown
Speed
Unknown
Apparent Right ascension
Unknown
Apparent Declination
Unknown
Sunlit
N/A
Visualization observer readout
Local Sidereal Time
06:46:46
Azimuth
Unknown
Elevation
Unknown
Doppler factor
Unknown
Orbital elements
Apogee altitude
1,007.323 km
Perigee altitude
547.62 km
Semi-major axis
7,155.609 km
Eccentricity
0.03212
Inclination
81.8791°
RAAN
350.8875°
Arg. of periapsis
7.593°
True anomaly
352.52739°
Mean anomaly
352.9949°
Eccentric anomaly
352.76305°
Mean motion
3.58569 °/min
Orbital period
100.4 mins
BSTAR
0.0014273
Loading maneuver chart data...
Computing Atmospheric mass density...

Documentation

Showing up to 5 results
|